Regional Weather Roundup
Issued by NWS

Home | Current Version | Previous Version | Graphics & Text | Print | Product List | Glossary On
Versions: 1 2 3 4 5 6 7 8 9 10 11 12 13 14 15 16 17 18 19 20 21 22 23 24 25 26 27 28 29 30 31 32 33 34 35 36 37 38 39 40 41 42 43 44 45 46 47 48 49 50
000
ASUS43 KFSD 040710
RWRSD

WEATHER ROUNDUP FOR SOUTH DAKOTA
NATIONAL WEATHER SERVICE SIOUX FALLS SD
200 AM CDT FRI SEP 04 2015

NOTE: "FAIR" INDICATES FEW OR NO CLOUDS BELOW 12,000 FEET WITH NO
SIGNIFICANT WEATHER AND/OR OBSTRUCTIONS TO VISIBILITY.


SDZ001>005-009-010-012>017-040800-
NORTHWEST AND NORTH CENTRAL SOUTH DAKOTA

CITY           SKY/WX    TMP DP  RH WIND       PRES   REMARKS
BUFFALO          N/A     64  52  64 W18       29.69R
MOBRIDGE       MOCLDY    74  72  93 SE6       29.69F
$$

SDZ012>016-024>037-041>051-057-063-072>074-040800-
SOUTHWEST AND SOUTH CENTRAL SOUTH DAKOTA

CITY           SKY/WX    TMP DP  RH WIND       PRES   REMARKS
RAPID CTY ARPT CLOUDY    73  52  47 VRB3      29.76F
PIERRE         MOCLDY    75  70  84 SE6       29.68S
CUSTER         CLOUDY    67  44  43 CALM      29.93S
PHILIP         CLOUDY    72  58  61 NE5       29.70R
PINE RIDGE     LGT RAIN  68  57  68 NE6       29.83R
WINNER         FAIR      78  66  66 SE10      29.71F
$$

SDZ004>011-016>023-039-040-040800-
NORTHEAST SOUTH DAKOTA

CITY           SKY/WX    TMP DP  RH WIND       PRES   REMARKS
ABERDEEN       PTCLDY    73  70  90 E8        29.73F
WATERTOWN      PTCLDY    75  71  87 SE8       29.79F
BROOKINGS      MOCLDY    75  70  83 SE13      29.82S
SISSETON         N/A     73  72  96 S3        29.78S
$$

SDZ017-020-022-023-036>040-048>070-040800-
SOUTHEAST SOUTH DAKOTA

CITY           SKY/WX    TMP DP  RH WIND       PRES   REMARKS
SIOUX FALLS    PTCLDY    76  70  82 S10       29.81S
HURON          CLOUDY    76  71  85 SE12      29.71F
CHAMBERLAIN    MOCLDY    73  71  92 SE8       29.71S
MITCHELL       MOCLDY    76  71  85 SE9       29.74S
YANKTON        MOCLDY    75  66  73 S10       29.77R
$$

ABBREVIATIONS USED IN REMARKS
   TC - TEMPERATURE IN CELSIUS
  WCI - WIND CHILL INDEX
   HX - HEAT INDEX
  VSB - VISIBILITY



USA.gov is the U.S. government's official web portal to all federal, state and local government web resources and services.